• In Italy
  • List of Countries
  • For 7 days
  • Water Temperature
  • Satellite Maps
  • Weather Map
  • Weather Widgets
  • user-avatar
    Login

    Hourly Weather Aylesbury

    Today, 22 November, Wednesday

    Time Temperature Precipitation Wind Pressure Humidity
    00:00 +13°C° 0 mm 6 mps 744 mmHg 89%
    01:00 +12°C° 0.1 mm 7 mps 744 mmHg 87%
    02:00 +12°C° 0.1 mm 8 mps 743 mmHg 86%
    03:00 +11°C° 0.1 mm 8 mps 743 mmHg 85%
    04:00 +11°C° 0 mm 8 mps 743 mmHg 85%
    05:00 +12°C° 0 mm 8 mps 742 mmHg 84%
    06:00 +12°C° 0 mm 8 mps 742 mmHg 84%
    07:00 +12°C° 0 mm 9 mps 741 mmHg 83%
    08:00 +12°C° 0 mm 9 mps 741 mmHg 82%
    09:00 +12°C° 0 mm 9 mps 741 mmHg 81%
    10:00 +12°C° 0 mm 10 mps 740 mmHg 79%
    11:00 +13°C° 0 mm 10 mps 740 mmHg 78%
    12:00 +13°C° 0 mm 10 mps 740 mmHg 76%
    13:00 +13°C° 0 mm 10 mps 739 mmHg 74%
    14:00 +13°C° 0 mm 10 mps 738 mmHg 72%
    15:00 +13°C° 0 mm 10 mps 737 mmHg 70%
    16:00 +13°C° 0 mm 11 mps 736 mmHg 68%
    17:00 +13°C° 0 mm 11 mps 735 mmHg 66%
    18:00 +13°C° 0 mm 12 mps 735 mmHg 65%
    19:00 +13°C° 0.4 mm 12 mps 734 mmHg 69%
    20:00 +13°C° 0.4 mm 12 mps 734 mmHg 74%
    21:00 +13°C° 0.4 mm 12 mps 733 mmHg 79%
    22:00 +13°C° 1 mm 12 mps 733 mmHg 80%
    23:00 +12°C° 1 mm 12 mps 732 mmHg 80%

    Tomorrow, 23 November, Thursday

    Time Temperature Precipitation Wind Pressure Humidity
    00:00 +12°C° 1 mm 12 mps 731 mmHg 81%
    01:00 +12°C° 0.8 mm 11 mps 731 mmHg 82%
    02:00 +12°C° 0.8 mm 10 mps 731 mmHg 83%
    03:00 +12°C° 0.8 mm 9 mps 731 mmHg 84%
    04:00 +12°C° 0.3 mm 9 mps 731 mmHg 83%
    05:00 +11°C° 0.3 mm 9 mps 732 mmHg 83%
    06:00 +11°C° 0.3 mm 8 mps 733 mmHg 83%
    07:00 +10°C° 0.1 mm 8 mps 735 mmHg 79%
    08:00 +7°C° 0.1 mm 8 mps 736 mmHg 76%
    09:00 +6°C° 0.1 mm 8 mps 738 mmHg 72%
    10:00 +7°C° 0 mm 8 mps 739 mmHg 68%
    11:00 +7°C° 0 mm 9 mps 740 mmHg 63%
    12:00 +8°C° 0 mm 9 mps 742 mmHg 59%
    13:00 +9°C° 0 mm 8 mps 742 mmHg 61%
    14:00 +8°C° 0 mm 7 mps 743 mmHg 62%
    15:00 +8°C° 0 mm 5 mps 744 mmHg 64%
    16:00 +8°C° 0 mm 4 mps 745 mmHg 66%
    17:00 +8°C° 0 mm 3 mps 745 mmHg 69%
    18:00 +8°C° 0 mm 3 mps 746 mmHg 71%
    19:00 +7°C° 0.8 mm 2 mps 745 mmHg 76%
    20:00 +8°C° 0.8 mm 1 mps 745 mmHg 81%
    21:00 +8°C° 0.8 mm 1 mps 745 mmHg 86%
    22:00 +6°C° 1.5 mm 2 mps 744 mmHg 86%
    23:00 +5°C° 1.5 mm 3 mps 744 mmHg 86%

    Day after tomorrow, 24 November, Friday

    Time Temperature Precipitation Wind Pressure Humidity
    00:00 +5°C° 1.5 mm 4 mps 744 mmHg 87%
    01:00 +4°C° 0.1 mm 3 mps 744 mmHg 85%
    02:00 +4°C° 0.1 mm 3 mps 744 mmHg 84%
    03:00 +5°C° 0.1 mm 2 mps 745 mmHg 83%
    04:00 +5°C° 0 mm 2 mps 745 mmHg 84%
    05:00 +4°C° 0 mm 2 mps 746 mmHg 84%
    06:00 +4°C° 0 mm 2 mps 747 mmHg 85%
    07:00 +4°C° 0 mm 2 mps 747 mmHg 84%
    08:00 +5°C° 0 mm 1 mps 748 mmHg 83%
    09:00 +5°C° 0 mm 1 mps 749 mmHg 82%
    10:00 +6°C° 0 mm 1 mps 749 mmHg 78%
    11:00 +6°C° 0 mm 2 mps 749 mmHg 74%
    12:00 +7°C° 0 mm 2 mps 749 mmHg 69%
    13:00 +7°C° 0 mm 2 mps 749 mmHg 71%
    14:00 +7°C° 0 mm 2 mps 749 mmHg 73%
    15:00 +6°C° 0 mm 2 mps 749 mmHg 75%
    16:00 +6°C° 0.1 mm 2 mps 749 mmHg 77%
    17:00 +6°C° 0.1 mm 2 mps 749 mmHg 79%
    18:00 +5°C° 0.1 mm 2 mps 749 mmHg 82%
    19:00 +6°C° 0.1 mm 1 mps 749 mmHg 83%
    20:00 +6°C° 0.1 mm 1 mps 749 mmHg 85%
    21:00 +6°C° 0.1 mm 1 mps 749 mmHg 86%
    22:00 +5°C° 0.1 mm 2 mps 749 mmHg 86%
    23:00 +3°C° 0.1 mm 3 mps 749 mmHg 86%

    25 November, Saturday

    Time Temperature Precipitation Wind Pressure Humidity
    00:00 +3°C° 0.1 mm 3 mps 749 mmHg 85%
    01:00 +3°C° 0 mm 3 mps 749 mmHg 83%
    02:00 +1°C° 0 mm 4 mps 749 mmHg 81%
    03:00 +1°C° 0 mm 4 mps 749 mmHg 79%
    04:00 0°C° 0 mm 4 mps 749 mmHg 78%
    05:00 0°C° 0 mm 4 mps 750 mmHg 77%
    06:00 0°C° 0 mm 4 mps 750 mmHg 76%
    07:00 0°C° 0 mm 5 mps 750 mmHg 76%
    08:00 0°C° 0 mm 5 mps 751 mmHg 76%
    09:00 0°C° 0 mm 5 mps 752 mmHg 76%
    10:00 +1°C° 0 mm 6 mps 752 mmHg 71%
    11:00 +2°C° 0 mm 7 mps 752 mmHg 66%
    12:00 +3°C° 0 mm 7 mps 752 mmHg 62%
    13:00 +3°C° 0 mm 7 mps 753 mmHg 63%
    14:00 +3°C° 0 mm 7 mps 753 mmHg 64%
    15:00 +3°C° 0 mm 6 mps 753 mmHg 66%
    16:00 +2°C° 0 mm 6 mps 753 mmHg 67%
    17:00 +1°C° 0 mm 6 mps 754 mmHg 69%
    18:00 +1°C° 0 mm 6 mps 754 mmHg 71%
    19:00 -1°C° 0 mm 6 mps 755 mmHg 72%
    20:00 0°C° 0 mm 5 mps 755 mmHg 73%
    21:00 0°C° 0 mm 5 mps 755 mmHg 74%
    22:00 -1°C° 0 mm 6 mps 755 mmHg 74%
    23:00 -1°C° 0 mm 6 mps 755 mmHg 75%

    26 November, Sunday

    Time Temperature Precipitation Wind Pressure Humidity
    00:00 -1°C° 0 mm 6 mps 755 mmHg 75%
    01:00 +1°C° 0.1 mm 6 mps 755 mmHg 76%
    02:00 +1°C° 0.1 mm 6 mps 755 mmHg 77%
    03:00 0°C° 0.1 mm 7 mps 755 mmHg 78%
    04:00 +1°C° 0 mm 6 mps 756 mmHg 80%
    05:00 +1°C° 0 mm 6 mps 756 mmHg 82%
    06:00 +1°C° 0 mm 6 mps 756 mmHg 85%
    07:00 +1°C° 0 mm 6 mps 756 mmHg 84%
    08:00 +1°C° 0 mm 6 mps 757 mmHg 83%
    09:00 +1°C° 0 mm 6 mps 757 mmHg 82%
    10:00 +2°C° 0 mm 6 mps 757 mmHg 78%
    11:00 +3°C° 0 mm 6 mps 758 mmHg 74%
    12:00 +4°C° 0 mm 6 mps 758 mmHg 71%
    13:00 +5°C° 0 mm 5 mps 758 mmHg 72%
    14:00 +5°C° 0 mm 5 mps 758 mmHg 73%
    15:00 +4°C° 0 mm 4 mps 758 mmHg 75%
    16:00 +4°C° 0 mm 4 mps 758 mmHg 77%
    17:00 +3°C° 0 mm 4 mps 758 mmHg 80%
    18:00 +3°C° 0 mm 4 mps 759 mmHg 83%
    19:00 +1°C° 0 mm 4 mps 759 mmHg 84%
    20:00 +1°C° 0 mm 4 mps 759 mmHg 84%
    21:00 +1°C° 0 mm 4 mps 759 mmHg 85%
    22:00 +1°C° 0 mm 4 mps 759 mmHg 86%
    23:00 0°C° 0 mm 4 mps 759 mmHg 86%

    27 November, Monday

    Time Temperature Precipitation Wind Pressure Humidity
    00:00 0°C° 0 mm 4 mps 759 mmHg 87%
    01:00 0°C° 0 mm 4 mps 759 mmHg 87%
    02:00 0°C° 0 mm 4 mps 758 mmHg 86%
    03:00 0°C° 0 mm 4 mps 758 mmHg 86%
    04:00 0°C° 0 mm 4 mps 757 mmHg 85%
    05:00 +1°C° 0 mm 4 mps 757 mmHg 85%
    06:00 +1°C° 0 mm 4 mps 756 mmHg 85%
    07:00 +2°C° 0 mm 5 mps 755 mmHg 83%
    08:00 +3°C° 0 mm 6 mps 754 mmHg 82%
    09:00 +4°C° 0 mm 6 mps 754 mmHg 81%
    10:00 +4°C° 0.3 mm 6 mps 753 mmHg 80%
    11:00 +5°C° 0.3 mm 7 mps 752 mmHg 79%
    12:00 +5°C° 0.3 mm 7 mps 751 mmHg 78%
    13:00 +5°C° 0.6 mm 7 mps 749 mmHg 80%
    14:00 +5°C° 0.6 mm 8 mps 748 mmHg 82%
    15:00 +5°C° 0.6 mm 8 mps 747 mmHg 84%
    16:00 +5°C° 0.9 mm 8 mps 746 mmHg 85%
    17:00 +5°C° 0.9 mm 8 mps 744 mmHg 87%
    18:00 +5°C° 0.9 mm 8 mps 743 mmHg 88%
    19:00 +4°C° 1 mm 7 mps 743 mmHg 88%
    20:00 +3°C° 1 mm 6 mps 742 mmHg 87%
    21:00 +2°C° 1 mm 5 mps 741 mmHg 87%
    22:00 +3°C° 0.4 mm 4 mps 741 mmHg 87%
    23:00 +3°C° 0.4 mm 4 mps 741 mmHg 86%
    Show more